TimeCDT,TemperatureF,Dew PointF,Humidity,Sea Level PressureIn,VisibilityMPH,Wind Direction,Wind SpeedMPH,Gust SpeedMPH,PrecipitationIn,Events,Conditions,WindDirDegrees,DateUTC
12:53 AM,37.9,35.1,89,30.02,10.0,Calm,Calm,-,N/A,,Clear,0,2014-03-21 05:53:00
1:53 AM,37.0,36.0,96,30.03,10.0,Calm,Calm,-,N/A,,Clear,0,2014-03-21 06:53:00
2:53 AM,36.0,34.0,93,30.01,9.0,East,3.5,-,N/A,,Clear,80,2014-03-21 07:53:00
3:53 AM,36.0,34.0,93,29.98,10.0,East,4.6,-,N/A,,Clear,90,2014-03-21 08:53:00
4:53 AM,35.1,33.1,92,29.97,8.0,Calm,Calm,-,N/A,,Clear,0,2014-03-21 09:53:00
5:53 AM,36.0,34.0,93,29.97,10.0,Calm,Calm,-,N/A,,Clear,0,2014-03-21 10:53:00
6:53 AM,36.0,34.0,93,29.98,10.0,ESE,3.5,-,N/A,,Clear,120,2014-03-21 11:53:00
7:53 AM,37.0,35.1,93,29.97,8.0,Calm,Calm,-,N/A,,Clear,0,2014-03-21 12:53:00
8:53 AM,45.0,39.9,82,29.98,9.0,North,3.5,-,N/A,,Clear,360,2014-03-21 13:53:00
9:53 AM,53.1,41.0,64,29.99,9.0,Calm,Calm,-,N/A,,Clear,0,2014-03-21 14:53:00
10:53 AM,60.1,44.1,55,29.97,9.0,SSW,4.6,-,N/A,,Clear,200,2014-03-21 15:53:00
11:53 AM,68.0,48.0,49,29.94,10.0,SSW,10.4,-,N/A,,Clear,210,2014-03-21 16:53:00
12:53 PM,71.1,46.9,42,29.91,10.0,South,11.5,-,N/A,,Clear,180,2014-03-21 17:53:00
1:53 PM,73.0,46.9,39,29.88,10.0,SSW,10.4,-,N/A,,Clear,210,2014-03-21 18:53:00
2:53 PM,77.0,45.0,32,29.84,10.0,South,13.8,18.4,N/A,,Clear,180,2014-03-21 19:53:00
3:53 PM,78.1,42.1,28,29.82,10.0,South,15.0,20.7,N/A,,Clear,190,2014-03-21 20:53:00
4:53 PM,77.0,42.1,29,29.81,10.0,South,4.6,-,N/A,,Clear,180,2014-03-21 21:53:00
5:53 PM,77.0,45.0,32,29.81,10.0,South,4.6,-,N/A,,Clear,190,2014-03-21 22:53:00
6:53 PM,75.0,44.1,33,29.83,10.0,Calm,Calm,-,N/A,,Overcast,0,2014-03-21 23:53:00
7:53 PM,68.0,48.9,50,29.84,10.0,Calm,Calm,-,N/A,,Overcast,0,2014-03-22 00:53:00
8:53 PM,64.9,51.1,61,29.85,10.0,Calm,Calm,-,N/A,,Overcast,0,2014-03-22 01:53:00
9:53 PM,59.0,52.0,78,29.87,10.0,Calm,Calm,-,N/A,,Scattered Clouds,0,2014-03-22 02:53:00
10:53 PM,61.0,53.1,75,29.88,9.0,Calm,Calm,-,N/A,,Overcast,0,2014-03-22 03:53:00
11:53 PM,60.1,53.1,78,29.88,8.0,Calm,Calm,-,N/A,,Overcast,0,2014-03-22 04:53:00